This is the latest recevied weather packets stored in our database for station/object KF4CQ. If no packets are shown the sender has not sent any weather packets the latest 10 day(s).
| Time | Temp. | Humidity | Pressure | Rain* | Wind** | Luminosity | Snow |
|---|---|---|---|---|---|---|---|
| 1778098187 | 33.89° C | 46% | 1016 hPa | 0 mm | - | 192 W/m² | - |
| 1778097883 | 33.89° C | 47% | 1016.2 hPa | 0 mm | - | 290 W/m² | - |
| 1778097579 | 33.33° C | 47% | 1016.1 hPa | 0 mm | - | 412 W/m² | - |
| 1778097276 | 33.89° C | 47% | 1016.2 hPa | 0 mm | - | 267 W/m² | - |
| 1778096973 | 33.33° C | 46% | 1016.1 hPa | 0 mm | - | 181 W/m² | - |
| 1778096671 | 33.33° C | 47% | 1016.4 hPa | 0 mm | - | 186 W/m² | - |
| 1778096367 | 33.89° C | 45% | 1016.1 hPa | 0 mm | - | 215 W/m² | - |
| 1778096065 | 33.89° C | 47% | 1016.2 hPa | 0 mm | - | 195 W/m² | - |
| 1778095761 | 33.89° C | 47% | 1016.5 hPa | 0 mm | - | 431 W/m² | - |
| 1778095458 | 33.89° C | 47% | 1016.5 hPa | 0 mm | - | 129 W/m² | - |
| 1778095155 | 34.44° C | 46% | 1016.5 hPa | 0 mm | - | 269 W/m² | - |
| 1778094851 | 33.89° C | 46% | 1016.7 hPa | 0 mm | - | 716 W/m² | - |
| 1778094548 | 33.33° C | 47% | 1016.7 hPa | 0 mm | - | 724 W/m² | - |
| 1778094244 | 33.89° C | 47% | 1016.7 hPa | 0 mm | - | 584 W/m² | - |
| 1778093942 | 34.44° C | 45% | 1016.8 hPa | 0 mm | - | 551 W/m² | - |
| 1778093639 | 33.89° C | 46% | 1017 hPa | 0 mm | - | 230 W/m² | - |
| 1778093336 | 33.89° C | 48% | 1016.8 hPa | 0 mm | - | 207 W/m² | - |
| 1778093033 | 33.89° C | 46% | 1017 hPa | 0 mm | - | 338 W/m² | - |
| 1778092730 | 33.33° C | 48% | 1016.9 hPa | 0 mm | - | 756 W/m² | - |
| 1778092425 | 32.78° C | 48% | 1017 hPa | 0 mm | - | 783 W/m² | - |
| 1778092123 | 33.33° C | 47% | 1016.9 hPa | 0 mm | - | 156 W/m² | - |
| 1778091820 | 33.89° C | 45% | 1017.1 hPa | 0 mm | - | 756 W/m² | - |
| 1778091517 | 33.33° C | 48% | 1017.2 hPa | 0 mm | - | 275 W/m² | - |
| 1778091215 | 33.89° C | 48% | 1017.2 hPa | 0 mm | - | 725 W/m² | - |
| 1778090912 | 33.33° C | 48% | 1017.4 hPa | 0 mm | - | 801 W/m² | - |
* Rain latest hour (hover to see other rain measurements)
** Current wind speed in m/s (hover to see current wind gust speed)